Weather History for Deadhorse, AK

Change the Weather History Date:

Friday, December 28, 2012

  Actual Average Record
Temperature  
Mean Temperature -10 °F -  
Max Temperature 1 °F -2 °F 33 °F (2001)
Min Temperature -20 °F -15 °F -45 °F (2010)
Degree Days  
Heating Degree Days 74    
Moisture  
Dew Point -20 °F    
Average Humidity 69    
Maximum Humidity 92    
Minimum Humidity 30    
Precipitation  
Precipitation 0.00 in - - ()
Sea Level Pressure  
Sea Level Pressure 30.06 in    
Wind  
Wind Speed 3 mph (North)    
Max Wind Speed 7 mph    
Max Gust Speed -    
Visibility 7 miles    
Events Snow    
Averages and records for this station are not official NWS values.
T = Trace of Precipitation, MM = Missing Value Source: NWS Daily Summary

Daily Weather History Graph

Daily Weather History Graph

Search for Another Location

Airport:

Trip Planner

Search our weather history database for the weather conditions in past years. The results will help you decide how hot, cold, wet, or windy it might be!

Date:

Astronomy

Dec. 31, 1969 Rise Set
Actual Time Sun does not rise Sun does not rise
Civil Twilight 10:51 AM AKST 3:00 PM AKST
Nautical Twilight 9:02 AM AKST 4:49 PM AKST
Astronomical Twilight 7:41 AM AKST 6:10 PM AKST
Moon 2:35 PM AKST (12/28) 12:07 PM AKST (12/28)
Length of Visible Light 4h 09m
Length of Day
0h 00m
Full, 100% of the Moon is Illuminated
Dec 28
Full
Jan 4
Last Quarter
Jan 11
New
Jan 18
First Quarter
Jan 26
Full

Hourly Weather History & Observations

Time (AKST) Temp. Windchill Dew Point Humidity Pressure Visibility Wind Dir Wind Speed Gust Speed Precip Events Conditions
12:53 AM -13.0 °F -22.7 °F -16.6 °F 84% 29.99 in 7.0 mi NW 3.5 mph - N/A   Overcast
1:53 AM -13.0 °F -22.7 °F -18.4 °F 77% 30.01 in 10.0 mi West 3.5 mph - N/A   Overcast
2:53 AM -13.0 °F -28.6 °F -16.6 °F 84% 30.01 in 7.0 mi NW 6.9 mph - N/A   Overcast
3:53 AM -9.4 °F -18.6 °F -14.8 °F 77% 30.02 in 7.0 mi NNE 3.5 mph - N/A   Overcast
4:53 AM -11.2 °F -20.6 °F -14.8 °F 84% 30.02 in 7.0 mi North 3.5 mph - N/A   Overcast
5:53 AM -8.0 °F -16.9 °F -16.1 °F 68% 30.03 in 7.0 mi NE 3.5 mph - N/A   Overcast
6:24 AM -5.8 °F - -18.4 °F 55% 30.02 in 9.0 mi Calm Calm - N/A   Overcast
6:53 AM -0.9 °F -8.9 °F -18.9 °F 42% 30.04 in 9.0 mi WSW 3.5 mph - N/A Snow Light Snow
7:53 AM 1.9 °F -9.2 °F -23.1 °F 30% 30.04 in 9.0 mi West 5.8 mph - N/A Snow Light Snow
8:53 AM -14.8 °F - -20.2 °F 77% 30.05 in 9.0 mi Calm Calm - N/A Snow Light Snow
9:45 AM -14.8 °F - -20.2 °F 77% 30.04 in 9.0 mi Calm Calm - N/A Snow Light Snow
9:53 AM -14.8 °F - -20.2 °F 77% 30.06 in 9.0 mi Calm Calm - N/A Snow Light Snow
10:00 AM -5.8 °F - -22.0 °F 46% 30.04 in 9.0 mi Calm Calm - N/A Snow Light Snow
10:53 AM -14.8 °F -24.8 °F -20.2 °F 77% 30.07 in 9.0 mi WSW 3.5 mph - N/A Snow Light Snow
11:53 AM -18.4 °F -31.4 °F -23.8 °F 76% 30.08 in 9.0 mi West 4.6 mph - N/A Snow Light Snow
12:53 PM -20.2 °F -33.5 °F -27.0 °F 71% 30.08 in 9.0 mi NNW 4.6 mph - N/A Snow Light Snow
1:30 PM -14.8 °F -24.8 °F -20.2 °F 77% 30.08 in 9.0 mi NNW 3.5 mph - N/A Snow Light Snow
1:53 PM -15.0 °F -27.4 °F -20.9 °F 75% 30.08 in 9.0 mi North 4.6 mph - N/A Snow Light Snow
2:10 PM -13.0 °F -25.1 °F -22.0 °F 64% 30.07 in 7.0 mi North 4.6 mph - N/A Snow Light Snow
2:53 PM -16.6 °F - -22.9 °F 73% 30.09 in 3.0 mi Calm Calm - N/A   Overcast
3:00 PM -11.2 °F - -23.8 °F 54% 30.08 in 1.5 mi Calm Calm - N/A   Overcast
3:37 PM -11.2 °F -23.0 °F -22.0 °F 59% 30.07 in 2.5 mi North 4.6 mph - N/A   Overcast
3:53 PM -11.0 °F - -23.1 °F 55% 30.08 in 2.5 mi Calm Calm - N/A Snow Light Snow
4:03 PM -11.2 °F - -23.8 °F 54% 30.07 in 1.0 mi Calm Calm - N/A Snow Light Snow
4:11 PM -11.2 °F - -23.8 °F 54% 30.07 in 2.5 mi Calm Calm - N/A Snow Light Snow
4:18 PM -11.2 °F - -20.2 °F 64% 30.07 in 3.0 mi Calm Calm - N/A Snow Light Snow
4:53 PM -15.2 °F -29.5 °F -20.0 °F 79% 30.08 in 4.0 mi North 5.8 mph - N/A Snow Light Snow
5:53 PM -11.0 °F -22.8 °F -20.9 °F 62% 30.07 in 3.0 mi NNE 4.6 mph - N/A Snow Light Snow
6:42 PM -14.8 °F -29.1 °F -20.2 °F 77% 30.06 in 8.0 mi NNE 5.8 mph - N/A Snow Light Snow
6:53 PM -11.9 °F -25.7 °F -22.0 °F 61% 30.07 in 9.0 mi NNE 5.8 mph - N/A Snow Light Snow
7:53 PM -11.9 °F -21.5 °F -20.0 °F 67% 30.07 in 8.0 mi NE 3.5 mph - N/A Snow Light Snow
8:53 PM -9.0 °F -20.4 °F -18.9 °F 62% 30.06 in 5.0 mi NNE 4.6 mph - N/A Snow Light Snow
9:53 PM -11.2 °F -24.8 °F -16.6 °F 77% 30.07 in 10.0 mi ENE 5.8 mph - N/A   Mostly Cloudy
10:21 PM -14.8 °F -29.1 °F -16.6 °F 92% 30.06 in 10.0 mi ENE 5.8 mph - N/A   Scattered Clouds
10:53 PM -16.6 °F -32.9 °F -20.2 °F 84% 30.05 in 10.0 mi NE 6.9 mph - N/A   Scattered Clouds
11:53 PM -13.0 °F -28.6 °F -18.4 °F 77% 30.05 in 10.0 mi NE 6.9 mph - N/A   Mostly Cloudy